Location: Bukit Lungun
(2.6833°N, 113.9667°E)
Time: 13:58:07
(UTC+00:00)

Cosmos 1862 - Pass Details

Date: 02 March 2021
Orbit: 536 x 557 km, 82.5° (Epoch: 21 April)

Event Time Altitude Azimuth Distance (km) Brightness Sun altitude
Rises 21:36:35 0° 345° (NNW) 2,708 6.6 -15.1°
Reaches altitude 10° 21:38:49 10° 338° (NNW) 1,814 5.7 -14.5°
Maximum altitude 21:42:35 42° 267° (W) 790 3.6 -13.6°
Drops below altitude 10° 21:46:21 10° 195° (SSW) 1,808 5.9 -12.7°
Sets 21:48:35 0° 188° (S) 2,699 6.8 -12.1°
